"Period start","avg(HW err(1)/warn(2) (#))","avg(Visibility (m))","avg(Weather code (#))","avg(Precip intensity (mm/h))","min(HW err(1)/warn(2) (#))","max(HW err(1)/warn(2) (#))","std(HW err(1)/warn(2) (#))","med(HW err(1)/warn(2) (#))","min(Visibility (m))","max(Visibility (m))","std(Visibility (m))","med(Visibility (m))","min(Weather code (#))","max(Weather code (#))","std(Weather code (#))","med(Weather code (#))","min(Precip intensity (mm/h))","max(Precip intensity (mm/h))","std(Precip intensity (mm/h))","med(Precip intensity (mm/h))"
2014-08-08 00:00:00,0,11190,62,12.37,0,0,0,0,9837,14645,1346,10951,61,62,0,62,4.65,19.10,3.93,12.38
2014-08-08 00:10:00,0,12824,61,9.85,0,0,0,0,10242,14071,1039,13082,61,62,0,61,6.55,14.40,3.01,8.45
2014-08-08 00:20:00,0,10527,62,19.84,0,0,0,0,6637,15440,2433,9484,61,63,1,62,6.60,46.85,12.60,17.30
2014-08-08 00:30:00,0,12746,62,15.85,0,0,0,0,9778,16136,2096,12866,61,62,0,62,4.75,32.25,8.92,13.85
2014-08-08 00:40:00,0,9248,62,22.40,0,0,0,0,8202,9860,556,9366,62,62,0,62,11.25,34.65,6.50,23.90
2014-08-08 00:50:00,0,9372,62,21.46,0,0,0,0,8166,10419,625,9520,62,62,0,62,13.10,32.90,6.35,20.57
2014-08-08 01:00:00,0,8565,63,36.71,0,0,0,0,7545,10154,625,8574,62,63,0,63,20.80,51.90,10.55,41.38
2014-08-08 01:10:00,0,8696,62,21.77,0,0,0,0,7508,9449,620,8790,62,62,0,62,17.40,28.65,3.54,21.00
2014-08-08 01:20:00,0,10232,62,14.45,0,0,0,0,8254,12664,1431,10270,61,62,0,62,7.15,37.00,8.56,11.45
2014-08-08 01:30:00,0,13216,61,7.35,0,0,0,0,10787,18013,2270,12482,61,62,0,61,5.40,11.20,1.60,7.00
2014-08-08 01:40:00,0,10791,61,7.40,0,0,0,0,9160,13908,1577,10431,61,61,0,61,5.05,9.85,1.22,7.32
2014-08-08 01:50:00,0,12956,58,2.22,0,0,0,0,11039,15506,1238,12729,52,61,4,61,0.90,6.10,1.55,1.40
2014-08-08 02:00:00,0,18770,57,1.21,0,0,0,0,12780,22029,3128,19872,52,61,4,61,0.20,2.70,0.78,1.08
2014-08-08 02:10:00,0,15693,61,0.86,0,0,0,0,13888,20283,1874,15078,61,61,0,61,0.45,1.65,0.37,0.78
2014-08-08 02:20:00,0,12505,59,1.60,0,0,0,0,10726,13421,827,12725,52,61,4,61,0.70,2.20,0.42,1.75
2014-08-08 02:30:00,0,10425,52,3.28,0,0,0,0,9250,11813,881,10032,52,52,0,52,2.35,4.35,0.69,3.08
2014-08-08 02:40:00,0,14808,57,3.75,0,0,0,0,11517,19710,2786,13557,52,61,4,61,2.45,5.05,0.91,3.40
2014-08-08 02:50:00,0,19890,56,2.21,0,0,0,0,14249,27181,3499,20230,52,61,4,56,1.20,5.45,1.41,1.65
2014-08-08 03:00:00,0,19736,54,1.61,0,0,0,0,16467,22627,2010,20082,52,61,4,52,0.95,3.75,0.78,1.38
2014-08-08 03:10:00,0,16053,55,2.01,0,0,0,0,12483,19234,2259,16700,52,61,4,52,0.55,4.70,1.38,1.53
2014-08-08 03:20:00,0,14941,60,3.62,0,0,0,0,12191,17142,1504,14856,52,61,3,61,1.85,6.65,1.66,3.00
2014-08-08 03:30:00,0,16872,52,0.86,0,0,0,0,11466,27910,5051,16113,51,52,0,52,0.20,2.35,0.74,0.42
2014-08-08 03:40:00,0,28056,53,0.10,0,0,0,0,23986,38628,4737,25673,51,61,4,51,0.00,0.15,0.05,0.10
2014-08-08 03:50:00,0,33520,24,0.01,0,0,0,0,24742,45981,7005,32325,0,61,30,0,0.00,0.05,0.02,0.00
2014-08-08 04:00:00,0,39907,0,0.00,0,0,0,0,16651,48670,10437,45330,0,0,0,0,0.00,0.00,0.00,0.00
2014-08-08 04:10:00,0,10548,0,0.00,0,0,0,0,8194,13884,2181,9731,0,0,0,0,0.00,0.00,0.00,0.00
2014-08-08 04:20:00,0,17126,0,0.00,0,0,0,0,8950,20193,3609,18542,0,0,0,0,0.00,0.00,0.00,0.00
2014-08-08 04:30:00,0,20217,0,0.00,0,0,0,0,10760,29141,5540,20541,0,0,0,0,0.00,0.00,0.00,0.00
2014-08-08 04:40:00,0,11423,37,0.25,0,0,0,0,9059,14572,1717,11012,0,61,25,46,0.00,1.05,0.31,0.15
2014-08-08 04:50:00,0,5933,54,1.91,0,0,0,0,2998,9094,1840,5862,51,61,4,52,0.30,4.60,1.46,1.58
2014-08-08 05:00:00,0,2727,58,5.46,0,0,0,0,2507,3171,174,2718,53,61,4,61,4.20,7.35,0.96,5.28
2014-08-08 05:10:00,0,2927,52,3.19,0,0,0,0,2634,3452,229,2928,52,53,0,52,2.65,3.85,0.37,3.15
2014-08-08 05:20:00,0,3446,52,1.74,0,0,0,0,2729,4028,419,3425,52,52,0,52,1.05,2.45,0.47,1.80
2014-08-08 05:30:00,0,3619,52,1.41,0,0,0,0,3036,4259,369,3654,52,52,0,52,0.80,2.05,0.36,1.35
2014-08-08 05:40:00,0,4673,54,0.30,0,0,0,0,4096,5527,387,4610,51,61,4,52,0.15,0.85,0.20,0.23
2014-08-08 05:50:00,0,4458,49,0.17,0,0,0,0,3701,5759,561,4374,41,61,6,51,0.05,0.35,0.10,0.15
2014-08-08 06:00:00,0,4188,38,0.10,0,0,0,0,3766,5054,406,4074,10,51,15,41,0.00,0.20,0.07,0.10
2014-08-08 06:10:00,0,3968,10,0.00,0,0,0,0,3573,4644,301,3860,10,10,0,10,0.00,0.00,0.00,0.00
2014-08-08 06:20:00,0,4051,10,0.00,0,0,0,0,3756,4492,232,3964,10,10,0,10,0.00,0.00,0.00,0.00
2014-08-08 06:30:00,0,4900,10,0.00,0,0,0,0,4370,5958,407,4813,10,10,0,10,0.00,0.00,0.00,0.00
2014-08-08 06:40:00,0,4949,10,0.00,0,0,0,0,3781,5826,692,5072,10,10,0,10,0.00,0.00,0.00,0.00
2014-08-08 06:50:00,0,6554,10,0.00,0,0,0,0,5661,8199,721,6508,10,10,0,10,0.00,0.00,0.00,0.00
2014-08-08 07:00:00,0,9304,10,0.00,0,0,0,0,7415,11265,1242,9569,10,10,0,10,0.00,0.00,0.00,0.00
2014-08-08 07:10:00,0,11386,10,0.00,0,0,0,0,9926,13631,1226,10870,10,10,0,10,0.00,0.00,0.00,0.00
2014-08-08 07:20:00,0,10907,2,0.00,0,0,0,0,7969,16691,2587,10366,0,10,4,0,0.00,0.00,0.00,0.00
2014-08-08 07:30:00,0,11010,0,0.00,0,0,0,0,7334,17340,2847,10210,0,0,0,0,0.00,0.00,0.00,0.00
2014-08-08 07:40:00,0,11396,0,0.00,0,0,0,0,9368,15496,1878,11084,0,0,0,0,0.00,0.00,0.00,0.00
2014-08-08 07:50:00,0,9965,0,0.00,0,0,0,0,8361,12399,1546,9256,0,0,0,0,0.00,0.00,0.00,0.00
2014-08-08 08:00:00,0,7018,7,0.00,0,0,0,0,6080,8350,767,6834,0,10,5,10,0.00,0.00,0.00,0.00
2014-08-08 08:10:00,0,6254,10,0.00,0,0,0,0,4290,9103,1432,5772,10,10,0,10,0.00,0.00,0.00,0.00
2014-08-08 08:20:00,0,6707,10,0.00,0,0,0,0,5068,8316,1080,6910,10,10,0,10,0.00,0.00,0.00,0.00
2014-08-08 08:30:00,0,11020,10,0.00,0,0,0,0,7031,16002,3102,11114,10,10,0,10,0.00,0.00,0.00,0.00
2014-08-08 08:40:00,0,20545,4,0.00,0,0,0,0,13400,31499,6061,17670,0,10,5,0,0.00,0.00,0.00,0.00
2014-08-08 08:50:00,0,34603,0,0.00,0,0,0,0,28746,43172,4906,32876,0,0,0,0,0.00,0.00,0.00,0.00
2014-08-08 09:00:00,0,31204,0,0.00,0,0,0,0,27825,37151,2785,31414,0,0,0,0,0.00,0.00,0.00,0.00
2014-08-08 09:10:00,0,22955,0,0.00,0,0,0,0,12120,36807,8357,20477,0,0,0,0,0.00,0.00,0.00,0.00
2014-08-08 09:20:00,0,11202,0,0.00,0,0,0,0,8207,13900,1830,11355,0,0,0,0,0.00,0.00,0.00,0.00
2014-08-08 09:30:00,0,12554,0,0.00,0,0,0,0,10192,15464,1799,11952,0,0,0,0,0.00,0.00,0.00,0.00
2014-08-08 09:40:00,0,15510,0,0.00,0,0,0,0,13581,19290,1790,14846,0,0,0,0,0.00,0.00,0.00,0.00
2014-08-08 09:50:00,0,24924,0,0.00,0,0,0,0,21452,29576,2483,25240,0,0,0,0,0.00,0.00,0.00,0.00
2014-08-08 10:00:00,0,23140,0,0.00,0,0,0,0,15160,26965,3521,24282,0,0,0,0,0.00,0.00,0.00,0.00
2014-08-08 10:10:00,0,20766,0,0.00,0,0,0,0,15150,23031,2270,20950,0,0,0,0,0.00,0.00,0.00,0.00
2014-08-08 10:20:00,0,9245,2,0.00,0,0,0,0,5784,15115,2932,7920,0,10,4,0,0.00,0.00,0.00,0.00
2014-08-08 10:30:00,0,11178,10,0.00,0,0,0,0,8265,14613,2017,10924,10,10,0,10,0.00,0.00,0.00,0.00
2014-08-08 10:40:00,0,6768,5,0.00,0,0,0,0,3715,13737,3610,4941,0,10,5,5,0.00,0.00,0.00,0.00
2014-08-08 10:50:00,0,6834,10,0.00,0,0,0,0,5678,8584,920,6827,10,10,0,10,0.00,0.00,0.00,0.00
2014-08-08 11:00:00,0,8486,10,0.00,0,0,0,0,4560,21675,4548,7401,10,10,0,10,0.00,0.00,0.00,0.00
2014-08-08 11:10:00,0,13944,8,0.00,0,0,0,0,9407,22689,4058,12812,0,10,4,10,0.00,0.00,0.00,0.00
2014-08-08 11:20:00,0,17872,0,0.00,0,0,0,0,9672,34216,7779,16730,0,0,0,0,0.00,0.00,0.00,0.00
2014-08-08 11:30:00,0,12245,0,0.00,0,0,0,0,7449,18516,3494,12098,0,0,0,0,0.00,0.00,0.00,0.00
2014-08-08 11:40:00,0,19613,0,0.00,0,0,0,0,11048,33612,7716,15570,0,0,0,0,0.00,0.00,0.00,0.00
2014-08-08 11:50:00,0,13568,0,0.00,0,0,0,0,8705,20139,3112,12972,0,0,0,0,0.00,0.00,0.00,0.00
2014-08-08 12:00:00,0,20581,0,0.00,0,0,0,0,13764,33483,6244,18224,0,0,0,0,0.00,0.00,0.00,0.00
2014-08-08 12:10:00,0,15848,0,0.00,0,0,0,0,10358,23747,4302,14970,0,0,0,0,0.00,0.00,0.00,0.00
2014-08-08 12:20:00,0,9913,0,0.00,0,0,0,0,7523,13415,2213,8674,0,0,0,0,0.00,0.00,0.00,0.00
2014-08-08 12:30:00,0,8673,10,0.00,0,0,0,0,4698,13714,3611,7640,10,10,0,10,0.00,0.00,0.00,0.00
2014-08-08 12:40:00,0,9332,10,0.00,0,0,0,0,6954,13360,1854,9060,10,10,0,10,0.00,0.00,0.00,0.00
2014-08-08 12:50:00,0,25126,8,0.00,0,0,0,0,7850,39848,11102,27010,0,10,4,10,0.00,0.00,0.00,0.00
2014-08-08 13:00:00,0,43920,0,0.00,0,0,0,0,31467,50000,6425,46744,0,0,0,0,0.00,0.00,0.00,0.00
2014-08-08 13:10:00,0,43533,0,0.00,0,0,0,0,22153,50000,10337,50000,0,0,0,0,0.00,0.00,0.00,0.00
2014-08-08 13:20:00,0,35019,0,0.00,0,0,0,0,20013,46952,10047,34922,0,0,0,0,0.00,0.00,0.00,0.00
2014-08-08 13:30:00,0,16385,0,0.00,0,0,0,0,11168,20445,3372,16584,0,0,0,0,0.00,0.00,0.00,0.00
2014-08-08 13:40:00,0,13404,0,0.00,0,0,0,0,6013,21745,5203,13028,0,0,0,0,0.00,0.00,0.00,0.00
2014-08-08 13:50:00,0,11790,0,0.00,0,0,0,0,7427,17790,3223,10140,0,0,0,0,0.00,0.00,0.00,0.00
2014-08-08 14:00:00,0,6566,4,0.00,0,0,0,0,3224,12076,2738,6752,0,10,5,0,0.00,0.00,0.00,0.00
2014-08-08 14:10:00,0,7726,10,0.00,0,0,0,0,4846,9481,1567,8100,10,10,0,10,0.00,0.00,0.00,0.00
2014-08-08 14:20:00,0,6560,10,0.00,0,0,0,0,3927,10486,2247,5918,10,10,0,10,0.00,0.00,0.00,0.00
2014-08-08 14:30:00,0,1020,15,0.00,0,0,0,0,434,2749,665,788,10,34,10,10,0.00,0.00,0.00,0.00
2014-08-08 14:40:00,0,588,34,0.00,0,0,0,0,251,1698,422,406,34,34,0,34,0.00,0.00,0.00,0.00
2014-08-08 14:50:00,0,418,33,0.00,0,0,0,0,323,690,101,386,31,34,1,34,0.00,0.00,0.00,0.00
2014-08-08 15:00:00,0,314,34,0.00,0,0,0,0,229,417,54,311,34,34,0,34,0.00,0.00,0.00,0.00
2014-08-08 15:10:00,0,434,34,0.00,0,0,0,0,239,617,128,423,34,34,0,34,0.00,0.00,0.00,0.00
2014-08-08 15:20:00,0,232,34,0.00,0,0,0,0,182,287,31,227,34,34,0,34,0.00,0.00,0.00,0.00
2014-08-08 15:30:00,0,164,34,0.00,0,0,0,0,144,184,14,166,34,34,0,34,0.00,0.00,0.00,0.00
2014-08-08 15:40:00,0,167,34,0.00,0,0,0,0,135,293,43,152,34,34,0,34,0.00,0.00,0.00,0.00
2014-08-08 15:50:00,0,227,34,0.00,0,0,0,0,212,261,15,222,33,34,0,34,0.00,0.00,0.00,0.00
2014-08-08 16:00:00,0,262,34,0.00,0,0,0,0,190,411,65,248,33,34,0,34,0.00,0.00,0.00,0.00
2014-08-08 16:10:00,0,245,33,0.00,0,0,0,0,177,452,96,200,33,33,0,33,0.00,0.00,0.00,0.00
2014-08-08 16:20:00,0,885,32,0.00,0,0,0,0,375,1821,452,815,32,33,0,32,0.00,0.00,0.00,0.00
2014-08-08 16:30:00,0,1691,30,0.00,0,0,0,0,693,3365,776,1678,20,32,3,31,0.00,0.00,0.00,0.00
2014-08-08 16:40:00,0,3104,20,0.00,0,0,0,0,736,6703,2088,2816,20,20,0,20,0.00,0.00,0.00,0.00
2014-08-08 16:50:00,0,1776,28,0.00,0,0,0,0,541,4138,1372,938,20,32,5,32,0.00,0.00,0.00,0.00
2014-08-08 17:00:00,0,713,28,0.00,0,0,0,0,335,1622,434,458,20,32,5,30,0.00,0.00,0.00,0.00
2014-08-08 17:10:00,0,385,33,0.00,0,0,0,0,275,518,71,381,32,34,1,33,0.00,0.00,0.00,0.00
2014-08-08 17:20:00,0,602,34,0.00,0,0,0,0,458,841,130,524,34,34,0,34,0.00,0.00,0.00,0.00
2014-08-08 17:30:00,0,427,34,0.00,0,0,0,0,286,682,121,456,34,34,0,34,0.00,0.00,0.00,0.00
2014-08-08 17:40:00,0,213,34,0.00,0,0,0,0,175,294,41,197,34,34,0,34,0.00,0.00,0.00,0.00
2014-08-08 17:50:00,0,198,34,0.00,0,0,0,0,174,226,18,196,34,34,0,34,0.00,0.00,0.00,0.00
2014-08-08 18:00:00,0,213,34,0.00,0,0,0,0,192,231,11,212,34,34,0,34,0.00,0.00,0.00,0.00
2014-08-08 18:10:00,0,426,34,0.00,0,0,0,0,231,924,221,309,34,34,0,34,0.00,0.00,0.00,0.00
2014-08-08 18:20:00,0,735,34,0.00,0,0,0,0,519,984,165,697,33,34,0,34,0.00,0.00,0.00,0.00
2014-08-08 18:30:00,0,552,32,0.00,0,0,0,0,478,693,64,530,32,32,0,32,0.00,0.00,0.00,0.00
2014-08-08 18:40:00,0,511,32,0.00,0,0,0,0,384,722,89,499,32,32,0,32,0.00,0.00,0.00,0.00
2014-08-08 18:50:00,0,282,32,0.00,0,0,0,0,243,370,37,268,32,33,0,32,0.00,0.00,0.00,0.00
2014-08-08 19:00:00,0,12598,32,0.00,0,0,0,0,431,50000,18380,1181,32,33,0,32,0.00,0.00,0.00,0.00
2014-08-08 19:10:00,0,14367,24,0.00,0,0,0,0,4478,32304,9521,10710,20,33,5,20,0.00,0.00,0.00,0.00
2014-08-08 19:20:00,0,4302,21,0.00,0,0,0,0,422,11247,4764,637,20,32,4,20,0.00,0.00,0.00,0.00
2014-08-08 19:30:00,0,413,32,0.00,0,0,0,0,269,601,91,390,32,32,0,32,0.00,0.00,0.00,0.00
2014-08-08 19:40:00,0,184,34,0.00,0,0,0,0,151,265,41,160,33,34,0,34,0.00,0.00,0.00,0.00
2014-08-08 19:50:00,0,302,34,0.00,0,0,0,0,154,533,124,281,34,34,0,34,0.00,0.00,0.00,0.00
2014-08-08 20:00:00,0,1133,34,0.00,0,0,0,0,539,2230,631,805,34,34,0,34,0.00,0.00,0.00,0.00
2014-08-08 20:10:00,0,1520,26,0.00,0,0,0,0,975,2495,508,1244,20,34,7,20,0.00,0.00,0.00,0.00
2014-08-08 20:20:00,0,1200,20,0.00,0,0,0,0,820,1599,225,1208,20,20,0,20,0.00,0.00,0.00,0.00
2014-08-08 20:30:00,0,826,24,0.00,0,0,0,0,537,1227,280,722,20,32,5,20,0.00,0.00,0.00,0.00
2014-08-08 20:40:00,0,11747,32,0.00,0,0,0,0,638,40408,13355,3571,30,32,1,32,0.00,0.00,0.00,0.00
2014-08-08 20:50:00,0,50000,26,0.00,0,0,0,0,50000,50000,0,50000,20,30,5,30,0.00,0.00,0.00,0.00
2014-08-08 21:00:00,0,50000,20,0.00,0,0,0,0,50000,50000,0,50000,20,20,0,20,0.00,0.00,0.00,0.00
2014-08-08 21:10:00,0,49574,20,0.00,0,0,0,0,47267,50000,850,49982,20,20,0,20,0.00,0.00,0.00,0.00
2014-08-08 21:20:00,0,49117,20,0.00,0,0,0,0,46155,50000,1436,50000,20,20,0,20,0.00,0.00,0.00,0.00
2014-08-08 21:30:00,0,48682,20,0.00,0,0,0,0,44691,50000,1797,50000,20,20,0,20,0.00,0.00,0.00,0.00
2014-08-08 21:40:00,0,49750,20,0.00,0,0,0,0,47711,50000,683,50000,20,20,0,20,0.00,0.00,0.00,0.00
2014-08-08 21:50:00,0,49955,12,0.00,0,0,0,0,49547,50000,136,50000,0,20,10,20,0.00,0.00,0.00,0.00
2014-08-08 22:00:00,0,48326,0,0.00,0,0,0,0,42785,50000,2553,49748,0,0,0,0,0.00,0.00,0.00,0.00
2014-08-08 22:10:00,0,47104,0,0.00,0,0,0,0,40871,50000,3623,49322,0,0,0,0,0.00,0.00,0.00,0.00
2014-08-08 22:20:00,0,49162,0,0.00,0,0,0,0,44973,50000,1597,50000,0,0,0,0,0.00,0.00,0.00,0.00
2014-08-08 22:30:00,0,48204,0,0.00,0,0,0,0,40015,50000,3415,50000,0,0,0,0,0.00,0.00,0.00,0.00
2014-08-08 22:40:00,0,48761,0,0.00,0,0,0,0,44272,50000,1786,49816,0,0,0,0,0.00,0.00,0.00,0.00
2014-08-08 22:50:00,0,46690,0,0.00,0,0,0,0,33945,50000,5004,49021,0,0,0,0,0.00,0.00,0.00,0.00
2014-08-08 23:00:00,0,49298,0,0.00,0,0,0,0,45503,50000,1366,50000,0,0,0,0,0.00,0.00,0.00,0.00
2014-08-08 23:10:00,0,49327,0,0.00,0,0,0,0,46912,50000,1095,50000,0,0,0,0,0.00,0.00,0.00,0.00
2014-08-08 23:20:00,0,47936,0,0.00,0,0,0,0,41718,50000,2816,49160,0,0,0,0,0.00,0.00,0.00,0.00
2014-08-08 23:30:00,0,46899,0,0.00,0,0,0,0,34828,50000,5144,49858,0,0,0,0,0.00,0.00,0.00,0.00
2014-08-08 23:40:00,0,43962,0,0.00,0,0,0,0,33769,50000,5363,44620,0,0,0,0,0.00,0.00,0.00,0.00
2014-08-08 23:50:00,0,46225,0,0.00,0,0,0,0,38623,50000,3589,46193,0,0,0,0,0.00,0.00,0.00,0.00
